[[{"header":{"parameterUnit":"m.s-1","parameterCategory":1,"la1":30.2992,"la2":30.254,"lo1":-89.0895,"lo2":-89.0443,"dy":0.0025,"dx":0.0025,"nx":19,"ny":19,"refTime":"2026-05-18T03:00:00:Z","depth":0,"parameterNumber":2,"parameterNumberName":"U-component_of_WINDS"},"data":[0,0,0,-5.1728,-5.1732,-5.1911,-5.1911,-5.2145,-5.2147,0,0,0,0,0,0,0,0,0,0,0,-5.1679,-5.1681,-5.1728,-5.1732,-5.191,-5.1911,-5.2145,-5.2147,0,0,0,0,0,0,0,0,0,0,0,-5.1678,-5.168,-5.1682,-5.1733,-5.191,-5.1911,-5.2144,-5.2007,0,0,0,0,0,0,0,0,0,0,-5.1833,-5.1792,-5.168,-5.1682,-5.1734,-5.191,-5.1911,-5.2001,-5.2016,-5.2067,0,-5.2114,0,-5.2134,-5.2163,-5.2164,0,0,0,-5.1729,-5.1779,-5.1824,-5.1683,-5.1736,-5.191,-5.1829,-5.2009,-5.2026,-5.2087,-5.2117,-5.2125,-5.2138,-5.2165,-5.2166,-5.2471,-5.2472,0,0,-5.1719,-5.1713,-5.1812,-5.1835,-5.1809,-5.1823,-5.1835,-5.2019,-5.2051,-5.2118,-5.2131,-5.2142,-5.2166,-5.2168,-5.2469,-5.2471,0,0,0,-5.1693,-5.1706,-5.1746,-5.1826,-5.1857,-5.1829,-5.1842,-5.2043,-5.2057,-5.2133,-5.2145,-5.2168,-5.2171,-5.2468,-5.247,-5.254,0,0,0,-5.1687,-5.1691,-5.1742,-5.174,-5.1854,-5.1953,-5.1861,-5.2044,-5.2065,-5.2144,-5.2168,-5.2173,-5.2466,-5.2469,-5.2535,-5.2574,0,0,0,-5.1666,-5.1688,-5.1716,-5.1739,-5.1816,-5.195,-5.1974,-5.2049,-5.2072,-5.2164,-5.2174,-5.2465,-5.2468,-5.253,-5.2565,-5.2651,0,0,0,-5.1641,-5.1776,-5.1717,-5.1872,-5.1815,-5.1993,-5.1973,-5.2106,-5.2193,-5.2169,-5.2466,-5.247,-5.2528,-5.256,-5.2645,-5.2719,-5.275,0,0,-5.1808,-5.1796,-5.1888,-5.184,-5.2027,-5.1966,-5.2164,-5.225,-5.2264,-5.2401,-5.2408,-5.2536,-5.2565,-5.2649,-5.2931,-5.2955,0,0,0,-5.1938,-5.2003,-5.2055,-5.2138,-5.2207,-5.2269,-5.2326,-5.2358,-5.2475,-5.2333,-5.2592,-5.2609,-5.2659,-5.2694,-5.2715,-5.2757,-5.2487,-5.2486,-5.2486,-5.2162,-5.2174,-5.2326,-5.236,-5.2441,-5.2498,-5.2565,-5.2617,-5.2606,-5.2667,-5.2706,-5.2876,-5.2917,-5.2933,-5.2977,-5.2749,-5.2749,-5.2749,-5.275,-5.2405,-5.2499,-5.2481,-5.2621,-5.2633,-5.2751,-5.2812,-5.28,-5.2911,-5.2847,-5.2891,-5.2817,-5.2959,-5.2998,-5.2755,-5.2754,-5.2753,-5.2753,-5.2752,-5.2551,-5.2598,-5.2635,-5.2757,-5.2849,-5.2879,-5.2986,-5.2994,-5.3002,-5.3046,-5.3087,-5.3086,-5.3084,-5.3066,-5.3066,-5.3067,-5.3067,-5.3068,-5.3068,-5.2687,-5.2727,-5.2816,-5.2902,-5.2956,-5.3029,-5.3089,-5.3142,-5.3203,-5.32,-5.32,-5.3181,-5.2972,-5.2918,-5.3077,-5.3076,-5.3075,-5.3074,-5.3073,-5.2924,-5.2872,-5.301,-5.3064,-5.3165,-5.3256,-5.3265,-5.3373,-5.3419,-5.3471,-5.3444,-5.3289,-5.3277,-5.3261,-5.3215,-5.3442,-5.3442,-5.3442,-5.3442,-5.3045,-5.3041,-5.3183,-5.327,-5.3355,-5.3378,-5.3533,-5.3581,-5.3622,-5.3651,-5.362,-5.3562,-5.3545,-5.3543,-5.352,-5.3478,-5.3767,-5.3767,-5.3768,-5.319,-5.3195,-5.3325,-5.3365,-5.3445,-5.3513,-5.3658,-5.3758,-5.3794,-5.3781,-5.3673,-5.366,-5.3566,-5.3536,-5.3516,-5.3481,-5.3404,0,0]},{"header":{"parameterUnit":"m.s-1","parameterCategory":1,"la1":30.2992,"la2":30.254,"lo1":-89.0895,"lo2":-89.0443,"dy":0.0025,"dx":0.0025,"nx":19,"ny":19,"refTime":"2026-05-18T03:00:00:Z","depth":0,"parameterNumber":3,"parameterNumberName":"V-component_of_WINDS"},"data":[0,0,0,4.1385,4.1386,4.1414,4.1414,4.1464,4.1465,0,0,0,0,0,0,0,0,0,0,0,4.1386,4.1387,4.1385,4.1386,4.1414,4.1414,4.1464,4.1465,0,0,0,0,0,0,0,0,0,0,0,4.1386,4.1387,4.1388,4.1386,4.1414,4.1414,4.1464,4.1438,0,0,0,0,0,0,0,0,0,0,4.1408,4.1418,4.1387,4.1388,4.1387,4.1414,4.1414,4.1436,4.1439,4.1458,0,4.1478,0,4.1472,4.1469,4.1469,0,0,0,4.1379,4.1416,4.1415,4.1388,4.1387,4.1414,4.1399,4.1438,4.1441,4.1463,4.1478,4.148,4.1473,4.147,4.147,4.1604,4.1605,0,0,4.1377,4.1396,4.1413,4.1418,4.1415,4.1398,4.14,4.144,4.1458,4.1478,4.1481,4.1474,4.147,4.147,4.1603,4.1604,0,0,0,4.1378,4.1395,4.1393,4.1416,4.142,4.1399,4.1401,4.1456,4.1454,4.1481,4.1475,4.147,4.1471,4.1602,4.1604,4.1669,0,0,0,4.1377,4.1396,4.1393,4.1405,4.142,4.1438,4.1417,4.1451,4.1455,4.1474,4.147,4.1472,4.1601,4.1603,4.1665,4.1697,0,0,0,4.1381,4.1396,4.1403,4.1406,4.1418,4.1437,4.1437,4.1451,4.1451,4.1469,4.1472,4.16,4.1603,4.1661,4.1691,4.1738,0,0,0,4.1392,4.1461,4.1405,4.148,4.1418,4.1478,4.1437,4.148,4.1504,4.1471,4.1601,4.1603,4.166,4.1687,4.1734,4.178,4.1801,0,0,4.1489,4.1473,4.1516,4.1466,4.1541,4.1472,4.1557,4.156,4.1544,4.1585,4.1588,4.1667,4.169,4.1737,4.1915,4.1932,0,0,0,4.1553,4.1584,4.16,4.1623,4.1628,4.1635,4.1623,4.1625,4.1659,4.1569,4.1696,4.1709,4.1736,4.1757,4.1772,4.1793,4.1614,4.1614,4.1614,4.1717,4.1694,4.1763,4.1745,4.1768,4.1756,4.1773,4.1773,4.1742,4.1773,4.1784,4.1895,4.1921,4.1932,4.1954,4.1808,4.1808,4.1808,4.1808,4.1858,4.1898,4.1857,4.1909,4.1885,4.1929,4.1921,4.1898,4.1935,4.1884,4.1907,4.1853,4.1951,4.197,4.1813,4.1812,4.1812,4.1811,4.1811,4.1962,4.1977,4.1979,4.2011,4.2039,4.2017,4.2055,4.2032,4.2009,4.2032,4.2041,4.204,4.2036,4.2038,4.2039,4.2039,4.2039,4.204,4.204,4.2069,4.2069,4.2104,4.2116,4.2129,4.2142,4.2133,4.2144,4.2151,4.2131,4.2131,4.2097,4.1965,4.1932,4.2046,4.2045,4.2044,4.2043,4.2043,4.2219,4.2182,4.2236,4.2249,4.2262,4.2291,4.2261,4.2287,4.2294,4.2313,4.2276,4.2182,4.2163,4.2152,4.2124,4.228,4.228,4.228,4.228,4.2307,4.2296,4.2346,4.2369,4.2388,4.2366,4.2429,4.2422,4.241,4.2412,4.2386,4.2348,4.2337,4.2325,4.231,4.2284,4.2477,4.2477,4.2477,4.2398,4.2388,4.2445,4.2433,4.2442,4.245,4.2508,4.2535,4.2512,4.2485,4.2414,4.2405,4.2343,4.2324,4.2294,4.227,4.2222,0,0]}]]